User: anonymous   Login
Location: Clinton NY
(43.0598°N, 75.3602°W)
Time: 14:10:35
(UTC-04:00)
Language:

Cosmos-2242 - Orbit

View from above orbital plane
View from above orbital plane
View from above satellite
View from above satellite

Ground track
Ground track

The orbit data is extracted from the following two-line orbital elements,

1 22626U 93024A   16147.42512668  .00000321  00000-0  32707-4 0  9998
2 22626  82.5239  46.3742 0018339 328.8900  31.1230 14.87455918248656
Epoch (UTC): 26 May 2016 10:12:10
Eccentricity: 0.0018339
inclination: 82.5239°
perigee height: 593 km
apogee height: 619 km
right ascension of ascending node: 46.3742°
argument of perigee: 328.8900°
revolutions per day: 14.87455918
mean anomaly at epoch: 31.1230°
orbit number at epoch: 24865

The dashed part of the orbit path shows where the satellite is in the earth's shadow,  

DLR